Regional Weather Roundup
Issued by NWS

Home | Current Version | Previous Version | Text Only | Print | Product List | Glossary Off
Versions: 1 2 3 4 5 6 7 8 9 10 11 12 13 14 15 16 17 18 19 20 21 22 23 24 25 26 27 28 29 30 31 32 33 34 35 36 37 38 39 40 41 42 43 44 45 46 47 48 49 50

000
ASUS43 KLSX 161857
RWRMO

WEATHER SUMMARY FOR MISSOURI
NATIONAL WEATHER SERVICE SPRINGFIELD MO
100 PM CST MON JAN 16 2017

NOTE: "FAIR" INDICATES FEW OR NO CLOUDS BELOW 12,000 FEET WITH NO
       SIGNIFICANT WEATHER AND/OR OBSTRUCTIONS TO VISIBILITY.
       CURRENT SKY AND/OR WEATHER CONDITIONS ARE NOT AVAILABLE FOR
       CHILLICOTHE AND FARMINGTON.

MOZ001>031-035>038-043-044-053-054-162000-
...NORTHERN AND WESTERN MISSOURI...

CITY           SKY/WX    TMP DP  RH WIND       PRES   REMARKS
KANSAS CTY INT FOG       45  44  97 E6        29.84F VSB 1/2
LEE`S SUMMIT   CLOUDY    56  54  93 MISG      29.84F
ST JOSEPH      CLOUDY    39  39 100 SE6       29.86F FOG
CHILLICOTHE      N/A     41  41 100 E7        29.89F

$$
MOZ066>068-077>081-088>096-101>105-162000-
...SOUTHWEST MISSOURI...

CITY           SKY/WX    TMP DP  RH WIND       PRES   REMARKS
SPRINGFIELD    CLOUDY    56  54  93 S17       29.87F
JOPLIN         CLOUDY    59  52  77 SW17      29.86F
BRANSON        CLOUDY    55  55 100 SE10      29.91F FOG

$$
MOZ032>034-039>042-045>050-055>058-069>072-162000-
...CENTRAL MISSOURI...

CITY           SKY/WX    TMP DP  RH WIND       PRES   REMARKS
COLUMBIA       NOT AVBL
JEFFERSON CITY CLOUDY    55  53  93 SE12      29.90F
ROLLA          CLOUDY    54  54 100 S18       29.92F
SEDALIA        CLOUDY    58  55  90 SE8       29.88F
WARRENSBURG    CLOUDY    55  54  94 S9        29.85F

$$
MOZ051-052-059>065-162000-
...EAST CENTRAL MISSOURI...

CITY           SKY/WX    TMP DP  RH WIND       PRES   REMARKS
ST LOUIS INTL  CLOUDY    50  47  89 SE12      29.99F FOG

$$
MOZ072>076-082>087-097>100-106>115-162000-
...SOUTH CENTRAL AND SOUTHEAST MISSOURI...

CITY           SKY/WX    TMP DP  RH WIND       PRES   REMARKS
CAPE GIRARDEAU CLOUDY    55  52  89 SE12      30.03F
FARMINGTON     FOG       52  52 100 S16       30.01F VSB 3/4
POPLAR BLUFF   CLOUDY    56  55  97 S7        30.02F FOG
WEST PLAINS    FOG       53  53 100 S12       29.96F VSB 1/4

$$



USA.gov is the U.S. government's official web portal to all federal, state and local government web resources and services.